Probability
16 42 74 84 87 87 74 71 71 68 68 58 58 58 58 58 52 42 35 29 26 32 29 23 19 19 19 19 13 13 10 3 10 3 3 3 6 0 0 0 0 0 0
26 39 71 77 81 81 74 65 61 65 61 55 48 52 48 52 42 35 32 29 23 29 29 26 23 19 16 16 10 16 10 10 3 3 3 3 3 3 0 0 0 0 0
32 48 58 74 74 81 77 68 61 58 55 52 55 42 45 39 32 35 29 26 29 29 29 26 26 23 16 10 6 3 6 3 3 3 0 0 0 0 0 0 0 0 0
39 52 58 71 74 77 77 71 58 55 55 55 48 45 42 42 35 32 29 19 23 32 32 29 26 19 16 10 6 3 3 3 3 0 0 0 0 0 0 0 0 0 0
45 52 61 68 68 74 77 71 65 55 52 55 52 48 39 39 35 32 29 23 29 29 29 32 26 16 13 10 10 6 3 3 3 0 0 0 0 0 0 0 0 0 0
42 45 52 68 68 71 71 74 71 71 61 61 55 52 45 42 39 29 32 29 26 26 26 29 26 16 10 13 10 10 3 3 0 0 0 0 0 0 0 0 0 0 0
42 48 48 58 65 61 68 71 74 71 65 55 52 55 52 42 42 32 29 35 29 23 23 19 19 19 10 10 10 10 6 0 0 0 0 0 0 0 0 0 0 0 0
42 48 48 55 55 61 61 65 71 65 68 55 55 55 52 42 39 26 29 32 35 29 23 13 16 16 19 16 10 6 3 0 0 0 0 0 0 0 0 0 0 0 0
42 42 42 48 48 52 48 52 55 65 58 58 61 55 58 48 32 29 29 26 23 35 26 19 19 13 16 16 19 10 3 0 0 0 0 0 0 0 0 0 0 0 0
39 39 39 39 42 42 42 42 42 42 42 52 48 32 23 19 19 23 19 19 26 23 29 26 19 16 23 16 10 6 0 0 0 0 0 0 0 0 0 3 3 3 0
39 39 39 42 42 39 32 35 32 29 29 26 10 10 10 13 10 10 16 16 16 16 23 23 19 13 0 0 0 0 0 0 0 0 0 0 0 0 6 10 6 0 0
35 35 35 35 35 29 29 19 19 19 6 6 6 6 3 6 6 6 6 6 10 13 10 16 10 6 0 0 0 0 0 0 0 0 0 0 0 3 6 13 6 3 3
23 26 29 29 32 23 13 16 13 10 3 3 3 3 0 0 0 0 0 0 0 0 0 0 0 0 0 0 0 0 0 0 0 0 0 0 0 3 6 6 10 6 3
19 23 23 16 16 13 10 13 6 3 3 3 3 0 0 0 0 0 0 0 0 0 0 0 0 0 0 0 0 0 0 0 0 0 0 0 0 0 0 6 6 6 3
13 10 13 10 6 3 3 3 3 3 3 3 3 0 0 0 0 0 0 0 0 0 0 0 0 0 0 0 0 0 0 0 0 0 0 0 0 0 0 0 3 6 6
6 6 10 6 3 3 3 3 3 3 3 3 3 0 3 0 0 0 0 0 0 0 0 0 0 0 0 0 0 0 0 0 0 0 0 0 0 0 0 0 3 3 3
0 0 3 3 3 3 3 3 3 3 3 3 3 3 3 0 0 0 0 0 0 0 0 0 0 0 0 0 0 0 0 0 0 0 0 0 0 0 0 0 0 0 3
0 0 0 0 3 3 3 3 3 3 3 3 3 3 3 0 0 0 0 0 0 0 0 0 0 0 0 0 0 0 0 0 0 0 0 0 0 0 0 0 0 0 0
0 0 0 0 0 0 3 3 3 3 3 3 3 3 3 0 0 0 0 0 0 0 0 0 0 0 0 0 0 0 0 0 0 0 0 0 0 0 0 0 0 0 0
0 0 0 0 0 0 0 3 3 3 3 3 3 3 0 0 0 0 0 0 0 0 0 0 0 0 0 0 0 0 0 0 0 0 0 0 0 0 0 0 0 0 0
0 0 0 0 0 0 0 0 0 3 0 0 0 0 0 0 0 0 0 0 0 0 0 0 0 0 0 0 0 0 0 0 0 0 0 0 0 0 0 0 0 0 0
0 0 0 0 0 0 0 0 0 0 0 0 0 0 0 0 0 0 0 0 0 0 0 0 0 0 0 0 0 0 0 0 0 0 0 0 0 0 0 0 0 0 0
0 0 0 0 0 0 0 0 0 0 0 0 0 0 0 0 0 0 0 0 0 0 0 0 0 0 0 0 0 0 0 0 0 0 0 0 0 0 0 0 0 0 0
0 0 0 0 0 0 0 0 0 0 0 0 0 0 0 0 0 0 0 0 0 0 0 0 0 0 0 0 0 0 0 0 0 0 0 0 0 0 0 0 0 0 0
0 0 0 0 0 0 0 0 0 0 0 0 0 0 0 0 0 0 0 0 0 0 0 0 0 0 0 0 0 0 0 0 0 0 0 0 0 0 0 0 0 0 0
0 0 0 0 0 0 0 0 0 0 0 0 0 0 0 0 0 0 0 0 0 0 0 0 0 0 0 0 0 0 0 0 0 0 0 0 0 0 0 0 0 0 0
Height
5840 5842 5844 5846 5848 5850 5852 5853 5855 5856 5857 5859 5860 5861 5862 5864 5865 5866 5867 5868 5869 5870 5871 5872 5872 5873 5874 5874 5875 5875 5875 5876 5876 5876 5876 5876 5876 5876 5875 5875 5875 5875 5874
5836 5838 5841 5843 5845 5847 5849 5851 5852 5854 5855 5856 5858 5859 5861 5862 5863 5864 5865 5866 5867 5868 5869 5870 5871 5871 5872 5873 5873 5874 5874 5874 5874 5874 5874 5874 5874 5874 5874 5874 5873 5873 5873
5832 5834 5837 5839 5842 5844 5846 5848 5849 5851 5852 5854 5855 5857 5858 5860 5861 5862 5863 5864 5865 5866 5867 5868 5869 5870 5870 5871 5871 5872 5872 5872 5872 5873 5873 5873 5872 5872 5872 5872 5872 5871 5871
5827 5830 5833 5835 5838 5840 5842 5844 5846 5848 5849 5851 5852 5854 5856 5857 5858 5860 5861 5862 5863 5864 5865 5866 5867 5867 5868 5868 5869 5869 5870 5870 5870 5870 5870 5870 5870 5870 5870 5870 5870 5869 5869
5822 5825 5828 5831 5834 5836 5838 5841 5843 5844 5846 5848 5849 5851 5852 5854 5855 5856 5858 5859 5860 5861 5862 5863 5864 5865 5865 5866 5866 5867 5867 5868 5868 5868 5868 5868 5868 5868 5868 5868 5867 5867 5867
5817 5820 5824 5827 5830 5831 5834 5837 5839 5841 5842 5844 5846 5848 5849 5850 5852 5853 5854 5856 5857 5858 5859 5860 5861 5862 5862 5863 5863 5864 5864 5865 5865 5865 5865 5865 5865 5865 5865 5865 5865 5864 5864
5811 5815 5819 5822 5824 5826 5829 5832 5834 5836 5839 5840 5842 5844 5846 5847 5848 5849 5851 5852 5853 5854 5855 5856 5857 5858 5859 5859 5860 5861 5861 5861 5862 5862 5862 5862 5862 5862 5862 5862 5862 5861 5861
5805 5809 5813 5817 5819 5822 5825 5827 5830 5832 5834 5836 5838 5840 5842 5843 5844 5846 5847 5848 5849 5850 5851 5852 5853 5854 5855 5855 5856 5856 5857 5858 5858 5858 5858 5859 5859 5859 5858 5858 5858 5858 5857
5799 5803 5807 5810 5813 5816 5819 5822 5825 5827 5830 5832 5834 5836 5837 5839 5840 5841 5843 5844 5845 5846 5847 5848 5849 5850 5850 5851 5851 5852 5853 5853 5854 5854 5855 5855 5855 5855 5854 5854 5854 5853 5853
5794 5798 5801 5804 5807 5810 5813 5816 5819 5822 5824 5827 5829 5831 5833 5834 5836 5837 5838 5839 5840 5841 5842 5843 5844 5845 5845 5846 5846 5847 5848 5849 5849 5850 5850 5850 5850 5850 5850 5850 5849 5849 5848
5788 5792 5795 5798 5802 5805 5808 5810 5813 5816 5819 5821 5824 5826 5827 5829 5831 5832 5833 5834 5835 5836 5837 5838 5839 5840 5840 5841 5841 5842 5843 5843 5844 5845 5845 5845 5845 5845 5845 5845 5845 5844 5844
5783 5786 5789 5793 5796 5799 5802 5805 5808 5810 5813 5816 5818 5820 5822 5823 5825 5826 5828 5829 5830 5831 5831 5832 5833 5834 5835 5835 5835 5836 5837 5838 5838 5839 5840 5840 5840 5840 5840 5840 5840 5839 5839
5777 5781 5784 5787 5789 5793 5796 5799 5802 5804 5807 5809 5812 5814 5815 5817 5819 5820 5822 5823 5824 5825 5825 5826 5827 5828 5828 5829 5829 5829 5830 5831 5832 5833 5834 5834 5834 5835 5834 5834 5834 5834 5833
5770 5774 5776 5780 5783 5786 5789 5792 5795 5798 5800 5803 5805 5807 5809 5811 5812 5814 5815 5816 5817 5818 5819 5820 5820 5821 5821 5822 5822 5823 5823 5824 5825 5826 5827 5828 5828 5828 5828 5828 5828 5828 5827
5764 5767 5771 5774 5777 5780 5783 5786 5789 5791 5794 5796 5798 5800 5802 5804 5806 5807 5808 5809 5810 5811 5812 5813 5813 5814 5815 5815 5815 5816 5816 5817 5818 5819 5820 5821 5821 5821 5822 5822 5822 5822 5822
5759 5762 5765 5768 5771 5774 5777 5780 5782 5785 5787 5790 5791 5793 5795 5797 5799 5800 5801 5802 5803 5804 5804 5805 5806 5807 5807 5808 5809 5809 5810 5810 5811 5812 5813 5814 5814 5815 5815 5815 5815 5815 5815
5754 5756 5759 5762 5765 5768 5771 5774 5776 5778 5780 5783 5785 5786 5788 5789 5791 5792 5793 5794 5795 5796 5797 5797 5798 5799 5800 5801 5801 5802 5802 5803 5804 5805 5805 5806 5807 5807 5808 5808 5808 5808 5808
5749 5752 5754 5756 5759 5762 5765 5767 5769 5771 5773 5775 5777 5779 5781 5782 5783 5784 5785 5786 5787 5787 5788 5789 5790 5791 5792 5793 5794 5794 5795 5796 5796 5797 5798 5798 5799 5800 5800 5801 5801 5801 5801
5744 5746 5748 5751 5753 5756 5758 5761 5762 5764 5766 5768 5770 5771 5773 5774 5775 5776 5777 5778 5779 5780 5780 5781 5782 5783 5784 5784 5785 5786 5787 5788 5788 5789 5790 5791 5791 5792 5793 5793 5793 5793 5793
5739 5741 5743 5745 5747 5750 5752 5754 5756 5757 5759 5761 5763 5764 5765 5766 5767 5768 5769 5770 5771 5771 5772 5773 5774 5775 5775 5776 5777 5777 5778 5779 5780 5781 5782 5783 5783 5784 5785 5785 5785 5785 5785
5734 5736 5738 5740 5742 5744 5745 5747 5749 5750 5752 5755 5756 5757 5758 5758 5759 5760 5761 5762 5763 5764 5764 5765 5766 5766 5767 5767 5768 5769 5770 5770 5771 5772 5773 5775 5775 5776 5776 5777 5777 5776 5776
5731 5733 5734 5736 5738 5739 5740 5741 5743 5744 5746 5748 5749 5750 5751 5752 5752 5753 5753 5754 5755 5756 5756 5757 5757 5758 5759 5759 5759 5759 5760 5762 5762 5763 5764 5765 5766 5767 5767 5767 5767 5767 5767
5727 5728 5730 5731 5732 5733 5735 5736 5738 5738 5739 5742 5743 5744 5744 5745 5746 5746 5746 5746 5747 5748 5748 5749 5749 5750 5750 5750 5750 5750 5751 5753 5754 5755 5755 5755 5756 5757 5758 5758 5758 5758 5758
5722 5723 5724 5726 5727 5728 5729 5731 5732 5733 5734 5736 5736 5737 5738 5738 5738 5739 5739 5739 5739 5740 5740 5741 5741 5741 5741 5741 5741 5741 5742 5743 5744 5746 5746 5746 5747 5748 5749 5749 5749 5748 5748
5717 5717 5719 5720 5721 5722 5724 5725 5726 5727 5728 5728 5729 5730 5731 5731 5731 5732 5732 5732 5732 5732 5733 5733 5733 5733 5732 5732 5732 5732 5732 5733 5734 5735 5737 5738 5738 5739 5739 5739 5739 5739 5739
5711 5712 5713 5714 5715 5716 5717 5718 5719 5720 5721 5722 5722 5723 5723 5724 5724 5724 5724 5724 5725 5725 5725 5725 5725 5724 5723 5723 5723 5723 5723 5724 5725 5725 5727 5729 5729 5730 5730 5729 5729 5729 5729
Wind_Speed
20 19 19 17 16 15 13 12 11 11 10 9 8 7 7 7 7 7 7 7 7 7 7 7 7 7 7 7 7 7 6 6 6 7 7 8 8 8 8 8 9 9 10
22 21 20 19 18 17 15 14 13 13 12 11 10 9 9 9 9 9 9 9 9 9 9 9 9 9 9 9 9 9 9 9 9 9 9 9 10 10 9 9 10 10 11
23 22 22 20 19 19 17 16 15 14 14 13 12 12 11 11 11 11 11 11 10 10 10 10 10 11 11 11 11 11 11 11 11 11 11 11 11 11 11 11 11 12 12
24 23 23 22 21 20 19 18 17 16 15 15 14 13 13 13 13 13 13 13 12 12 12 12 12 12 12 12 12 12 13 13 12 12 12 12 12 12 12 13 13 13 13
25 24 23 23 22 21 20 20 19 17 16 16 15 15 15 14 15 15 14 14 14 14 14 14 14 14 14 14 14 14 14 14 14 14 14 14 13 13 13 14 14 14 15
26 26 25 23 23 22 21 21 20 19 18 17 17 16 16 16 16 16 16 16 16 16 16 16 16 16 16 15 15 15 15 15 15 15 15 15 15 15 15 15 16 16 17
27 27 26 25 24 23 22 21 21 20 19 18 18 17 17 17 17 17 18 18 18 18 17 17 17 17 18 18 18 18 17 17 17 17 16 16 17 17 17 17 18 18 18
27 27 27 27 26 24 24 23 22 21 21 20 19 19 19 19 18 18 19 19 19 19 19 19 19 19 20 20 20 20 20 19 18 18 18 19 19 19 19 20 20 20 21
28 28 28 28 28 25 25 24 24 23 22 22 21 20 20 20 20 20 20 20 20 21 21 21 21 21 21 22 22 22 21 21 21 20 20 21 21 21 21 22 22 22 23
29 29 29 30 29 28 26 25 25 24 24 23 23 22 22 22 22 22 22 21 22 22 22 22 22 23 23 23 23 23 23 23 23 23 23 23 23 23 23 24 24 24 24
29 30 30 29 29 29 28 27 27 26 26 25 25 24 24 23 23 23 23 24 24 24 24 24 24 24 24 25 25 25 25 25 25 25 25 25 25 25 26 26 26 25 25
29 31 31 31 31 31 29 29 28 28 28 27 27 27 26 25 25 25 25 26 26 26 26 26 26 26 26 27 27 28 28 28 28 28 27 27 27 27 27 27 27 26 26
29 31 32 32 32 32 30 29 29 30 30 29 29 29 28 28 28 28 27 28 28 28 28 28 28 28 29 29 29 30 30 30 30 30 29 29 29 29 28 28 28 27 26
28 30 32 33 32 31 31 31 30 30 31 31 31 31 30 30 30 30 29 29 30 30 30 30 30 30 31 31 31 32 32 32 31 31 31 30 30 30 29 29 29 29 28
28 30 32 32 32 32 32 32 31 31 31 32 32 32 32 32 32 32 32 32 32 32 31 32 31 31 31 31 31 31 32 32 32 32 32 32 31 31 31 31 31 31 30
27 29 31 32 33 33 33 32 32 33 33 33 33 33 33 33 34 34 34 34 33 33 33 32 32 32 32 31 31 32 32 32 33 33 32 32 33 33 33 32 32 31 32
28 29 31 32 33 34 34 33 32 33 34 35 34 34 34 34 35 35 34 34 35 34 34 33 33 33 33 32 32 32 32 33 33 34 34 34 34 34 34 33 33 32 32
29 30 29 29 30 32 33 34 33 33 33 33 34 34 35 35 34 34 34 34 35 34 34 34 34 34 34 34 33 34 34 34 35 35 35 35 35 35 34 35 35 34 34
26 28 29 29 29 30 33 34 34 32 32 33 33 34 35 35 35 35 34 35 34 35 35 35 35 35 35 35 36 36 35 35 36 36 36 36 35 35 35 35 35 36 37
26 26 26 27 28 29 30 32 31 30 30 31 32 32 33 34 34 34 33 34 34 35 35 35 35 36 36 36 37 37 36 36 36 36 36 36 35 36 36 36 36 37 38
26 26 25 25 27 29 30 30 29 28 28 28 29 30 30 32 32 33 33 34 34 34 35 36 36 36 37 37 37 37 38 37 37 36 37 38 38 38 38 37 37 37 38
26 26 26 27 27 27 28 28 28 28 28 28 28 29 29 29 30 31 32 32 32 33 34 34 35 36 36 37 37 38 38 38 38 38 38 38 38 38 38 38 39 39 39
25 26 27 27 27 27 27 28 29 28 28 28 28 28 29 29 30 31 32 33 33 34 35 36 35 35 36 36 36 36 37 38 37 37 38 38 38 38 38 39 39 40 40
26 27 28 28 28 28 29 29 30 30 29 30 29 29 30 30 31 31 32 34 33 34 35 35 36 36 37 38 38 38 38 38 39 38 37 38 39 39 39 39 40 41 40
27 28 28 28 29 29 29 30 30 30 30 30 30 30 31 31 31 32 33 34 34 34 35 36 37 37 37 38 38 38 39 39 38 37 37 38 39 40 40 41 41 42 41
28 29 29 29 29 29 29 30 31 31 30 30 31 32 32 32 32 33 34 35 35 35 35 35 36 36 37 37 37 38 39 39 39 38 38 38 39 40 41 41 42 43 42
Wind_Direction
233 234 234 234 234 232 232 232 232 232 232 232 232 233 235 239 242 244 248 253 256 257 257 259 262 265 268 270 273 277 279 284 289 293 294 296 297 298 301 302 306 309 310
231 232 233 233 234 235 235 236 236 236 236 236 237 238 240 243 247 250 251 255 256 257 259 262 264 267 268 270 273 275 278 281 286 289 290 293 294 296 298 300 303 305 307
230 231 232 233 234 236 237 238 237 238 239 240 241 241 243 245 248 252 254 255 255 256 259 262 265 268 269 269 271 273 276 279 282 284 287 290 292 294 295 296 298 301 304
229 230 232 233 233 235 236 237 238 238 239 240 242 244 246 247 249 252 253 255 255 256 258 260 264 268 269 270 271 273 275 278 279 282 285 287 289 291 293 294 296 298 301
229 229 231 232 234 236 236 235 237 239 240 241 243 245 247 248 249 251 252 253 255 257 259 261 265 267 269 271 272 273 275 277 279 280 282 284 287 289 290 292 295 296 298
229 228 229 230 233 236 237 237 237 238 240 242 243 245 246 248 250 250 252 254 255 257 259 262 265 268 270 271 272 272 274 276 277 279 280 282 284 287 288 289 291 293 296
228 226 227 228 230 235 236 237 239 239 240 242 244 246 247 249 251 252 253 255 257 259 260 262 264 267 269 270 270 271 271 273 275 276 278 282 283 285 286 287 289 291 293
227 227 228 228 229 232 235 236 238 240 241 242 244 247 249 250 252 254 255 256 258 259 260 262 264 266 267 269 269 270 270 271 272 275 279 281 283 284 284 285 287 288 290
225 226 227 228 229 230 231 234 236 240 242 244 246 248 249 252 253 254 255 257 258 260 261 262 264 266 267 268 269 269 269 270 271 274 277 279 281 282 283 284 285 287 288
226 226 226 228 228 229 232 234 237 239 243 245 246 248 249 251 253 254 256 257 259 260 261 263 264 266 267 268 267 267 268 269 271 273 275 277 279 280 281 283 284 286 286
227 227 227 230 228 230 234 234 237 240 243 245 247 249 250 251 253 255 256 258 260 261 262 263 264 265 267 267 267 267 267 268 269 272 274 276 276 278 280 282 284 285 285
229 230 229 231 230 232 235 235 238 240 243 245 247 248 250 252 253 255 257 259 260 262 263 263 264 265 267 268 268 267 266 267 269 271 273 274 276 277 279 281 282 283 284
231 231 232 234 233 234 236 237 239 241 243 246 247 249 251 252 253 255 257 259 261 263 264 264 264 264 266 267 268 267 267 267 269 270 271 273 274 276 277 279 280 281 282
231 231 231 233 233 235 237 239 241 242 244 246 248 249 251 252 253 255 257 259 261 263 264 264 264 264 266 266 268 268 268 267 268 269 270 272 273 274 276 277 278 279 279
234 230 229 232 235 237 238 241 244 243 245 246 248 249 251 253 254 256 258 260 261 263 264 264 264 265 267 267 268 268 268 268 267 269 270 272 273 273 274 275 276 277 277
236 230 230 233 237 238 239 242 245 246 246 248 250 251 251 253 255 257 258 259 260 261 263 264 264 265 266 268 268 269 268 269 268 268 269 271 272 273 273 273 275 276 276
235 234 233 235 238 240 240 243 244 245 246 248 251 252 253 254 256 257 258 260 260 260 261 263 264 264 265 266 268 268 267 268 269 268 268 270 271 271 272 272 272 273 275
241 240 238 237 238 240 242 243 245 247 247 249 251 253 254 255 256 257 258 260 261 262 262 263 264 265 266 265 266 267 268 268 269 269 269 270 271 270 271 272 272 272 275
244 243 244 241 240 242 244 245 247 247 249 250 253 254 255 256 257 258 259 260 262 262 263 264 264 264 266 266 266 267 268 269 269 269 268 270 271 271 272 273 275 275 275
246 246 244 241 242 245 246 247 249 248 251 252 255 256 255 256 258 259 259 261 261 262 263 264 264 265 266 267 267 267 267 269 269 269 268 269 270 272 273 275 275 275 276
250 248 245 248 250 251 253 253 252 252 252 253 254 254 256 258 260 261 262 262 263 263 264 265 266 266 267 268 268 268 267 268 268 268 268 268 270 271 273 274 274 275 275
252 250 250 253 255 256 260 259 256 255 256 257 258 257 259 260 260 262 263 266 268 267 267 268 269 268 269 270 270 269 267 267 267 267 268 268 268 269 272 273 273 273 275
254 252 253 255 256 256 257 258 258 260 259 260 264 265 264 264 265 267 267 267 270 271 271 272 273 271 271 271 270 271 269 267 266 267 267 267 267 268 270 272 273 274 275
255 254 253 253 254 254 254 256 257 259 261 261 263 266 267 266 266 268 269 270 271 273 273 274 275 275 275 274 274 273 272 271 268 267 266 267 268 268 270 272 274 275 276
257 256 254 253 253 254 255 256 259 260 262 262 262 264 266 267 266 267 268 269 270 272 273 274 275 276 276 276 274 273 273 272 272 270 267 266 268 269 271 272 274 276 276
256 256 255 254 254 254 255 257 259 261 262 264 264 265 266 267 268 268 268 268 269 270 271 274 275 276 276 276 274 273 272 272 271 271 271 269 269 270 271 273 275 275 275